This is the latest recevied weather packets stored in our database for station/object CA2RRL-10. If no packets are shown the sender has not sent any weather packets the latest 10 day(s).
| Time | Temp. | Humidity | Pressure | Rain* | Wind** | Luminosity | Snow |
|---|---|---|---|---|---|---|---|
| 1777962824 | 12.22° C | 36% | 1029 hPa | - | - | - | - |
| 1777961924 | 12.78° C | 36% | 1029.2 hPa | - | - | - | - |
| 1777961024 | 12.78° C | 36% | 1029.3 hPa | - | - | - | - |
| 1777960124 | 12.78° C | 36% | 1029.4 hPa | - | - | - | - |
| 1777959224 | 12.78° C | 36% | 1029.5 hPa | - | - | - | - |
| 1777958324 | 12.78° C | 37% | 1029.5 hPa | - | - | - | - |
| 1777957424 | 12.78° C | 36% | 1029.6 hPa | - | - | - | - |
| 1777956524 | 13.33° C | 35% | 1029.6 hPa | - | - | - | - |
| 1777955624 | 13.33° C | 35% | 1029.8 hPa | - | - | - | - |
| 1777954724 | 13.89° C | 35% | 1029.9 hPa | - | - | - | - |
| 1777953823 | 14.44° C | 34% | 1030 hPa | - | - | - | - |
| 1777952923 | 14.44° C | 34% | 1030 hPa | - | - | - | - |
| 1777952023 | 15° C | 34% | 1029.9 hPa | - | - | - | - |
| 1777951123 | 15° C | 33% | 1030.1 hPa | - | - | - | - |
| 1777950222 | 15° C | 33% | 1030 hPa | - | - | - | - |
| 1777949322 | 15.56° C | 32% | 1029.9 hPa | - | - | - | - |
| 1777948422 | 15.56° C | 32% | 1029.9 hPa | - | - | - | - |
| 1777947522 | 15.56° C | 33% | 1029.7 hPa | - | - | - | - |
| 1777946622 | 15.56° C | 32% | 1029.7 hPa | - | - | - | - |
| 1777945722 | 15.56° C | 32% | 1029.5 hPa | - | - | - | - |
| 1777944822 | 16.11° C | 32% | 1029.5 hPa | - | - | - | - |
| 1777943922 | 16.11° C | 31% | 1029.4 hPa | - | - | - | - |
| 1777943022 | 16.67° C | 31% | 1029.5 hPa | - | - | - | - |
| 1777942122 | 17.22° C | 31% | 1029.5 hPa | - | - | - | - |
| 1777941222 | 17.78° C | 29% | 1029.3 hPa | - | - | - | - |
* Rain since midnight (hover to see other rain measurements)
** Current wind speed in m/s (hover to see current wind gust speed)